Showing default

JILIN-01 GAOFEN 3D, 46456

Orbit data source: Space-Track

JILIN-01 GAOFEN 3D, 46456 is a payload satellite owned by Changguang WJ (CN) in SSO that was launched on Tue, 15 Sep 2020 UTC via a CHANG ZHENG 11 launch vehicle from the Yellow Sea Launch Area, China (YSLA). Payload-class satellites include a variety of spacecraft equipped with specific instruments for various scientific and technological missions. These include communications satellites like Starlink; space stations such as the ISS; scientific satellites like the Hubble; Earth observation satellites from companies like Planet Labs, Umbra, and HawkEye 360; GPS; miniature CubeSats for education and research; and military/defense satellites.

Loading next visibility...
Identifier
46456, 2020-065C
Orbit
SSO
Last TLE update
5 hours ago
Origin
Flag of CNCGSTL (CN / PRC)
Manufacturer
Changguang WJ
Mission
Operational Commercial Imaging
Bus & Motor
JL-1, Unknown motor
Mass
42 kg wet, 42 kg dry
Launch date (UTC)
2020-09-15 (5 years ago)
Launch vehicle
CHANG ZHENG 11
Launch site
Yellow Sea Launch Area, China (YSLA)
Object type
Payload
Rocket body
Debris
Shape & HBR
Box + 2 Pan, 1.5 m
Radar Cross Section
2.000 m², Medium (>0.1 m² and < 1m²)

Expand to show TLE details & history

TLE from 5 hours ago
0 JILIN-01 GAOFEN 3D
1 46456U 20065C   25130.53919388  .00040077  00000-0  73272-3 0  9997
2 46456  97.2895 181.1040 0006102 152.1960 207.9619 15.49251355257722
Epoch: 2025-05-10T12:56Z
Definitive object data (Epoch: 2025-05-10T12:56:26.351Z)
Latitude
0.00004°
Longitude
118.41466°
Altitude
425.713 km
Speed
7.654 km/s
True Right ascension
12h 04m 24s
True Declination
0° 00' 00"
Sunlit
Object was in full shadow at TLE epoch
Visualization TLE readout
Latitude
-15.37631°
Longitude
120.61232°
Altitude
429.283 km
Speed
7.651 km/s
Apparent Right ascension
12h 52m 47s
Apparent Declination
-27° 34' 01"
Sunlit
Object is in full shadow
Visualization observer readout
Local Sidereal Time
01:46:04
Azimuth
45.805° ENE
Elevation
-73.45°
Doppler factor
1
Orbital elements
Apogee altitude
419.983 km
Perigee altitude
411.691 km
Semi-major axis
6,793.974 km
Eccentricity
0.0006102
Inclination
97.2895°
RAAN
181.104°
Arg. of periapsis
152.196°
True anomaly
207.92914°
Mean anomaly
207.9619°
Eccentric anomaly
207.94552°
Mean motion
3.87576 °/min
BSTAR
0.00073272
Orbital period
92.88 mins
Loading maneuver chart data...
Loading SW <> Apogee altitude chart data...
Loading historical data...
Loading historical data...
Loading historical data...
Loading historical data...
Loading historical data...
Loading historical data...
Loading historical data...

JILIN-01 GAOFEN 3D Visibility forecast

Observer location: undefined°, undefined°

Span
Click to sort rows by Start time (UTC) header in descending order
Start Az.
Max El. time (UTC)
Max El. Az.
Max El.
End time (UTC)
End Az.
5 mins2025-05-11 03:01:28.744Z142.568° SSE2025-05-11 03:04:28.744Z57.569° ENE31.718°2025-05-11 03:06:28.744Z8.878° NNE
4 mins2025-05-11 15:52:28.744Z46.95° ENE2025-05-11 15:53:28.744Z81.868° E31.749°2025-05-11 15:56:28.744Z168.291° S
|